Location: L�Ave Maria
(50.7161°N, 1.5911°E)
Time: 00:32:30
(UTC+00:00)

Cosmos 1408 - Pass Details

Date: 10 July 2020
Orbit: 470 x 494 km, 82.6° (Epoch: 03 August)

Event Time Altitude Azimuth Distance (km) Brightness Sun altitude
Exits shadow 22:30:09 16° 210° (SSW) 1,325 4.4 -14.6°
Maximum altitude 22:32:51 51° 283° (WNW) 603 3.2 -14.8°
Drops below altitude 10° 22:36:22 10° 1° (N) 1,647 6.4 -14.9°
Sets 22:38:30 0° 7° (N) 2,531 7.4 -15.1°
